Location: Dittelspoint
(48.7198°N, 10.7214°E)
Time: 22:35:43
(UTC+00:00)

STARLINK-1143 - Pass Details

Date: 09 April 2020
Orbit: 549 x 550 km, 53.0° (Epoch: 27 May)

Event Time Altitude Azimuth Distance (km) Brightness Sun altitude
Rises 18:24:38 0° 289° (WNW) 2,724 10.4 -4.7°
Reaches altitude 10° 18:26:55 10° 294° (WNW) 1,830 8.2 -5.1°
Maximum altitude 18:30:59 52° 11° (NNE) 691 4.2 -5.7°
Drops below altitude 10° 18:35:03 10° 89° (E) 1,827 5.7 -6.3°
Enters shadow 18:35:43 - 91° (E) 2,080 6.0 -6.4°
